Location: Bernay
(48.6766°N, 2.9386°E)
Time: 20:00:17
(UTC+00:00)

COSMO-SKYMED 1 - Pass Details

Date: 12 January 2026
Orbit: 577 x 579 km, 97.9° (Epoch: 15 February)

Event Time Altitude Azimuth Distance (km) Brightness Sun altitude
Exits shadow 18:46:42 34° 350° (N) 972 3.5 -24.1°
Maximum altitude 18:48:15 57° 288° (WNW) 690 3.0 -24.4°
Drops below altitude 10° 18:52:16 10° 210° (SSW) 1,888 5.4 -25.0°
Sets 18:54:25 0° 206° (SSW) 2,782 6.3 -25.4°
